GW2005 Weather Reports


time (UTC)temp
F
wind
direction
speed
knots
gust
knots
rain 1hr
in
rain 24hr
in
rain mn
in
humidity
%
barometer
mb
20260508225506 69 238 4.3 10.4 0.00 0.00 0.00 42 1011.5
20260508225000 69 211 5.2 11.3 0.00 0.00 0.00 40 1011.4
20260508224455 69 217 5.2 12.2 0.00 0.00 0.00 41 1011.4
20260508223944 69 128 4.3 12.2 0.00 0.00 0.00 41 1011.4
20260508223714 69 245 3.5 7.8 0.00 0.00 0.00 42 1011.4
20260508222932 69 261 4.3 10.4 0.00 0.00 0.00 42 1011.3
20260508222430 69 215 4.3 11.3 0.00 0.00 0.00 41 1011.3
20260508221912 69 198 4.3 11.3 0.00 0.00 0.00 42 1011.3
20260508221406 69 240 4.3 9.6 0.00 0.00 0.00 41 1011.4
20260508220855 69 194 4.3 9.6 0.00 0.00 0.00 41 1011.3
20260508220350 69 189 3.5 9.6 0.00 0.00 0.00 41 1011.4
20260508215845 69 248 3.5 9.6 0.00 0.00 0.00 42 1011.4
20260508215334 69 163 3.5 7.0 0.00 0.00 0.00 42 1011.5
20260508214828 70 203 2.6 7.0 0.00 0.00 0.00 41 1011.5
20260508214322 70 232 2.6 7.0 0.00 0.00 0.00 40 1011.5
20260508213817 70 130 3.5 11.3 0.00 0.00 0.00 39 1011.6
20260508213306 71 260 4.3 13.0 0.00 0.00 0.00 41 1011.6
20260508212800 70 254 5.2 12.2 0.00 0.00 0.00 40 1011.5
20260508212251 69 241 4.3 12.2 0.00 0.00 0.00 40 1011.6
20260508211744 70 190 4.3 11.3 0.00 0.00 0.00 39 1011.5
20260508211238 70 153 4.3 11.3 0.00 0.00 0.00 39 1011.5
20260508210958 71 209 2.6 8.7 0.00 0.00 0.00 38 1011.5
20260508210234 72 250 2.6 8.7 0.00 0.00 0.00 40 1011.5
20260508205716 73 223 1.7 6.1 0.00 0.00 0.00 34 1011.6
20260508205206 72 293 1.7 5.2 0.00 0.00 0.00 38 1011.5
20260508204701 72 301 1.7 5.2 0.00 0.00 0.00 35 1011.6
20260508204154 72 104 2.6 8.7 0.00 0.00 0.00 37 1011.6
20260508203644 72 241 3.5 8.7 0.00 0.00 0.00 36 1011.6
20260508203138 73 233 2.6 7.8 0.00 0.00 0.00 36 1011.6
20260508202118 72 271 3.5 8.7 0.00 0.00 0.00 36 1011.8
20260508201612 73 265 2.6 8.7 0.00 0.00 0.00 37 1011.8
20260508201337 73 239 1.7 10.4 0.00 0.00 0.00 39 1011.8
20260508200556 73 272 3.5 10.4 0.00 0.00 0.00 40 1011.9
20260508200050 73 180 2.6 9.6 0.00 0.00 0.00 38 1011.9
20260508195544 73 303 2.6 9.6 0.00 0.00 0.00 36 1012.0
20260508195030 73 292 2.6 9.6 0.00 0.00 0.00 39 1012.1
20260508194525 73 247 2.6 7.8 0.00 0.00 0.00 35 1012.2
20260508194018 73 309 2.6 7.8 0.00 0.00 0.00 37 1012.1
20260508193739 73 277 2.6 7.8 0.00 0.00 0.00 38 1012.2
20260508193002 73 205 3.5 7.8 0.00 0.00 0.00 37 1012.3
20260508192456 73 211 2.6 8.7 0.00 0.00 0.00 37 1012.3
20260508191946 72 219 3.5 8.7 0.00 0.00 0.00 37 1012.4
20260508191440 72 267 3.5 10.4 0.00 0.00 0.00 34 1012.6
20260508190934 72 223 3.5 10.4 0.00 0.00 0.00 35 1012.7
20260508190424 72 295 2.6 7.8 0.00 0.00 0.00 37 1012.7
20260508190149 72 207 2.6 7.8 0.00 0.00 0.00 36 1012.8
20260508185412 72 208 2.6 7.8 0.00 0.00 0.00 41 1012.9
20260508184902 71 248 2.6 13.0 0.00 0.00 0.00 41 1013.1
20260508184628 71 240 3.5 13.0 0.00 0.00 0.00 37 1013.1
20260508183850 71 275 2.6 7.8 0.00 0.00 0.00 41 1013.3
20260508183339 71 202 1.7 7.8 0.00 0.01 0.00 36 1013.4
20260508182834 71 224 1.7 5.2 0.00 0.01 0.00 40 1013.4
20260508182601 71 250 2.6 6.1 0.00 0.01 0.00 39 1013.4
20260508181814 70 241 2.6 9.6 0.00 0.01 0.00 38 1013.5
20260508181540 70 215 2.6 9.6 0.00 0.01 0.00 41 1013.7
20260508180802 70 213 2.6 8.7 0.00 0.01 0.00 39 1013.7
20260508180255 70 298 2.6 8.7 0.00 0.01 0.00 38 1013.8
20260508175754 69 269 1.7 6.1 0.00 0.01 0.00 44 1013.9
20260508175254 69 313 1.7 7.8 0.00 0.01 0.00 42 1014.0
20260508175028 69 274 2.6 7.8 0.00 0.01 0.00 42 1014.1
20260508174254 69 262 2.6 8.7 0.00 0.01 0.00 39 1014.1
20260508173753 69 186 2.6 8.7 0.00 0.01 0.00 39 1014.2
20260508173251 69 294 2.6 7.8 0.00 0.01 0.00 41 1014.2
20260508172752 69 307 1.7 5.2 0.00 0.01 0.00 41 1014.2
20260508172252 69 254 1.7 6.1 0.00 0.01 0.00 41 1014.2
20260508171751 69 238 2.6 9.6 0.00 0.01 0.00 42 1014.3
20260508171252 69 290 2.6 9.6 0.00 0.01 0.00 41 1014.4
20260508170751 69 281 1.7 6.1 0.00 0.01 0.00 40 1014.5
20260508170252 69 16 1.7 6.1 0.00 0.01 0.00 42 1014.5
20260508165745 69 248 1.7 7.8 0.00 0.01 0.00 38 1014.6
20260508164739 68 235 2.6 8.7 0.00 0.01 0.00 42 1014.9
20260508164241 67 235 2.6 8.7 0.00 0.01 0.00 42 1014.8
20260508163739 67 291 2.6 6.1 0.00 0.01 0.00 44 1014.8
20260508163240 67 236 2.6 6.1 0.00 0.01 0.00 44 1014.9
20260508162737 67 227 1.7 6.1 0.00 0.01 0.00 43 1015.0
20260508162508 67 298 2.6 6.1 0.00 0.01 0.00 42 1014.9
20260508161738 67 240 2.6 7.8 0.00 0.01 0.00 45 1015.0
20260508161008 67 201 1.7 7.0 0.00 0.01 0.00 44 1015.4
20260508160238 66 230 1.7 7.8 0.00 0.02 0.00 46 1015.4
20260508155735 66 309 2.6 7.8 0.00 0.03 0.00 46 1015.5
20260508155237 65 240 2.6 6.1 0.00 0.03 0.00 46 1015.6
20260508155004 64 174 2.6 7.0 0.00 0.03 0.00 45 1015.7
20260508154230 65 201 2.6 7.8 0.00 0.03 0.00 47 1015.8
20260508153729 65 246 2.6 7.8 0.00 0.03 0.00 46 1015.8
20260508152730 65 126 1.7 6.1 0.00 0.03 0.00 46 1015.8
20260508152229 64 335 2.6 9.6 0.00 0.03 0.00 48 1015.8
20260508151728 64 246 1.7 9.6 0.00 0.03 0.00 47 1015.8
20260508151227 64 255 0.9 2.6 0.00 0.03 0.00 49 1015.9
20260508150728 64 346 1.7 3.5 0.00 0.03 0.00 48 1015.8
20260508150225 64 296 0.9 7.0 0.00 0.03 0.00 46 1016.0
20260508145725 63 273 1.7 7.0 0.00 0.03 0.00 47 1016.0
20260508145457 63 269 2.6 7.0 0.00 0.03 0.00 49 1016.0
20260508144952 63 228 2.6 7.0 0.00 0.03 0.00 49 1016.0
20260508144222 62 220 1.7 7.8 0.00 0.03 0.00 50 1016.0
20260508143721 62 227 1.7 7.8 0.00 0.03 0.00 52 1016.1
20260508143221 61 190 3.5 7.8 0.00 0.03 0.00 52 1016.1
20260508142720 61 212 2.6 7.8 0.00 0.03 0.00 53 1016.1
20260508142220 61 213 1.7 7.0 0.00 0.03 0.00 52 1016.2
20260508141720 60 189 2.6 7.0 0.00 0.03 0.00 53 1016.2
20260508141219 60 247 1.7 7.0 0.00 0.03 0.00 56 1016.2
20260508140720 60 216 1.7 4.3 0.00 0.03 0.00 55 1016.2
20260508140219 60 205 0.9 4.3 0.00 0.03 0.00 54 1016.3
20260508135720 59 220 1.7 3.5 0.00 0.03 0.00 57 1016.3
20260508135219 59 238 1.7 3.5 0.00 0.03 0.00 60 1016.4
20260508134721 58 218 1.7 4.3 0.00 0.03 0.00 57 1016.4
20260508134220 58 232 1.7 5.2 0.00 0.03 0.00 59 1016.4
20260508133719 57 211 1.7 5.2 0.00 0.03 0.00 58 1016.4
20260508133220 57 176 1.7 4.3 0.00 0.03 0.00 59 1016.4
20260508132716 57 158 1.7 4.3 0.00 0.03 0.00 60 1016.4
20260508132215 56 203 1.7 4.3 0.00 0.03 0.00 61 1016.5
20260508131946 56 270 1.7 4.3 0.00 0.03 0.00 59 1016.5
20260508131446 55 200 1.7 4.3 0.00 0.03 0.00 65 1016.5
20260508130946 55 188 0.9 4.3 0.00 0.03 0.00 66 1016.6
20260508130215 54 221 0.9 2.6 0.00 0.03 0.00 70 1016.6
20260508125716 53 236 0.9 2.6 0.00 0.03 0.00 75 1016.6
20260508125216 52 242 0.9 2.6 0.00 0.03 0.00 78 1016.8
20260508124942 51 232 0.9 2.6 0.00 0.03 0.00 80 1016.8
20260508124212 51 232 0.0 2.6 0.00 0.03 0.00 80 1016.8
20260508123942 50 232 0.0 1.7 0.00 0.03 0.00 82 1016.8
20260508123211 49 232 0.0 1.7 0.00 0.03 0.00 87 1016.8
20260508122711 49 232 0.9 3.5 0.00 0.03 0.00 89 1016.8
20260508122209 47 232 1.7 3.5 0.00 0.03 0.00 88 1016.6
20260508121709 46 236 1.7 4.3 0.00 0.03 0.00 88 1016.6
20260508121440 45 210 0.9 4.3 0.00 0.03 0.00 91 1016.5
20260508120708 44 240 0.9 2.6 0.00 0.03 0.00 95 1016.6
20260508120208 43 173 0.9 2.6 0.00 0.03 0.00 98 1016.5
20260508115705 42 165 0.9 2.6 0.00 0.03 0.00 98 1016.5
20260508115435 41 229 0.0 0.9 0.00 0.03 0.00 98 1016.5
20260508114703 41 229 0.0 0.9 0.00 0.03 0.00 98 1016.5
20260508114203 40 229 0.0 0.9 0.00 0.03 0.00 98 1016.4
20260508113704 40 229 0.0 0.0 0.00 0.03 0.00 98 1016.3
20260508113201 39 229 0.0 0.0 0.00 0.03 0.00 98 1016.2
20260508112701 39 229 0.0 0.0 0.00 0.03 0.00 97 1016.1
20260508112201 38 229 0.0 0.0 0.00 0.03 0.00 97 1016.1
20260508111931 38 229 0.0 0.0 0.00 0.03 0.00 97 1016.1
20260508111201 38 229 0.0 0.0 0.00 0.03 0.00 97 1016.0
20260508110658 38 229 0.0 0.0 0.00 0.03 0.00 96 1015.9
20260508110158 38 229 0.0 0.0 0.00 0.03 0.00 96 1015.9
20260508105142 38 229 0.0 0.0 0.00 0.03 0.00 95 1015.8
20260508104636 38 229 0.0 0.0 0.00 0.03 0.00 95 1015.6
20260508104130 38 229 0.0 0.0 0.00 0.03 0.00 94 1015.5
20260508103620 38 229 0.0 0.9 0.00 0.03 0.00 94 1015.4
20260508103115 38 229 0.0 0.9 0.00 0.03 0.00 94 1015.2
20260508102840 38 229 0.0 0.0 0.00 0.03 0.00 95 1015.1
20260508102055 38 229 0.0 0.0 0.00 0.03 0.00 94 1015.1
20260508101548 38 229 0.0 0.9 0.00 0.03 0.00 94 1015.0
20260508101042 39 229 0.0 0.9 0.00 0.03 0.00 94 1015.0
20260508100532 39 229 0.0 0.0 0.00 0.03 0.00 94 1014.9
20260508100027 39 229 0.0 0.0 0.00 0.03 0.00 94 1014.9
20260508095521 40 229 0.0 0.0 0.00 0.03 0.00 94 1014.7
20260508095007 40 229 0.0 0.0 0.00 0.03 0.00 94 1014.7
20260508094500 40 229 0.0 0.0 0.00 0.03 0.00 94 1014.6
20260508094224 40 229 0.0 0.0 0.00 0.03 0.00 94 1014.6
20260508093716 40 229 0.0 0.0 0.00 0.03 0.00 94 1014.6
20260508092432 40 229 0.0 0.0 0.00 0.03 0.00 94 1014.6
20260508091923 41 229 0.0 0.0 0.00 0.03 0.00 94 1014.6
20260508091416 41 229 0.0 0.0 0.00 0.03 0.00 93 1014.6
20260508090911 41 229 0.0 0.0 0.00 0.03 0.00 94 1014.5
20260508090400 41 229 0.0 0.0 0.00 0.03 0.00 93 1014.5
20260508085854 41 229 0.0 1.7 0.00 0.03 0.00 93 1014.4
20260508085349 42 229 0.0 1.7 0.00 0.03 0.00 93 1014.5
20260508084838 42 229 0.0 0.9 0.00 0.03 0.00 93 1014.5
20260508084332 42 229 0.0 0.9 0.00 0.03 0.00 92 1014.4
20260508083827 42 229 0.0 1.7 0.00 0.03 0.00 92 1014.4
20260508083318 42 229 0.0 1.7 0.00 0.03 0.00 91 1014.4
20260508082810 42 229 0.9 1.7 0.00 0.03 0.00 91 1014.3
20260508082306 43 229 0.9 1.7 0.00 0.03 0.00 90 1014.2
20260508081754 43 229 0.9 1.7 0.00 0.03 0.00 90 1014.2
20260508081249 43 229 0.9 1.7 0.00 0.03 0.00 89 1014.2
20260508080742 44 229 0.9 1.7 0.00 0.03 0.00 89 1014.1
20260508080232 44 229 0.0 1.7 0.00 0.03 0.00 87 1014.1
20260508075726 45 229 0.0 0.9 0.00 0.03 0.00 87 1014.1
20260508075221 45 229 0.0 0.9 0.00 0.03 0.00 84 1014.1
20260508074938 45 229 0.0 0.9 0.00 0.03 0.00 81 1014.0
20260508074200 45 229 0.0 0.9 0.00 0.03 0.00 83 1014.0
20260508073654 45 229 0.0 0.9 0.00 0.03 0.00 84 1014.0
20260508073144 44 229 0.0 0.9 0.00 0.03 0.00 84 1013.9
20260508072638 44 186 0.0 0.9 0.00 0.03 0.00 87 1013.9
20260508072403 44 186 0.0 0.9 0.00 0.03 0.00 88 1013.9
20260508071618 43 186 0.0 0.9 0.00 0.03 0.00 90 1013.9
20260508071343 43 186 0.0 0.0 0.00 0.03 0.00 92 1013.8
20260508070606 43 186 0.0 0.9 0.00 0.03 0.00 93 1013.7
20260508070056 43 186 0.0 0.9 0.00 0.03 0.00 94 1013.6
20260508065550 43 186 0.0 1.7 0.00 0.03 0.00 94 1013.6
20260508065044 43 186 0.0 0.9 0.00 0.03 0.00 95 1013.5
20260508064534 43 237 0.0 0.9 0.00 0.03 0.00 96 1013.4
20260508064028 42 249 0.0 0.9 0.00 0.03 0.00 97 1013.3
20260508063523 42 248 0.0 0.9 0.00 0.03 0.00 96 1013.3
20260508063012 42 248 0.0 0.9 0.00 0.03 0.00 95 1013.2
20260508062506 43 248 0.0 0.9 0.00 0.03 0.00 95 1013.1
20260508062000 43 249 0.0 0.9 0.00 0.03 0.00 96 1013.0
20260508061452 43 249 0.0 0.0 0.00 0.03 0.00 96 1013.0
20260508060952 44 249 0.0 0.9 0.00 0.03 0.00 96 1012.9
20260508060452 44 248 0.0 0.9 0.00 0.03 0.00 96 1012.9
20260508055952 44 249 0.0 0.9 0.00 0.03 0.00 96 1012.9
20260508055452 44 249 0.0 0.0 0.00 0.03 0.00 96 1012.9
20260508054953 45 248 0.0 0.9 0.00 0.03 0.00 96 1013.0
20260508054452 45 249 0.0 1.7 0.00 0.03 0.00 96 1012.9
20260508053952 45 248 0.0 1.7 0.00 0.03 0.00 96 1012.9
20260508053453 45 248 0.0 0.9 0.00 0.03 0.00 96 1013.0
20260508052952 45 248 0.0 0.9 0.00 0.03 0.00 96 1013.0
20260508052452 45 249 0.0 1.7 0.00 0.03 0.00 96 1013.1
20260508051952 46 248 0.0 1.7 0.00 0.03 0.00 96 1013.1
20260508051452 46 249 0.0 1.7 0.00 0.04 0.00 96 1013.1
20260508051221 46 248 0.0 1.7 0.00 0.04 0.00 96 1013.1
20260508050444 46 249 0.0 1.7 0.00 0.05 0.00 97 1013.0
20260508045934 46 248 0.0 0.9 0.00 0.05 0.00 96 1013.0
20260508045428 46 248 0.0 0.9 0.00 0.05 0.00 96 1013.0
20260508044922 46 249 0.0 0.9 0.00 0.07 0.00 96 1012.9
20260508044408 46 249 0.0 0.9 0.00 0.12 0.00 96 1012.8
20260508043902 46 249 0.0 0.9 0.00 0.13 0.00 96 1012.8
20260508043355 46 249 0.0 0.9 0.00 0.14 0.00 94 1012.7
20260508042846 47 248 0.0 0.0 0.00 0.14 0.00 96 1012.5
20260508042340 47 249 0.0 0.9 0.00 0.14 0.00 96 1012.5
20260508042106 47 249 0.0 0.9 0.00 0.15 0.00 95 1012.5
20260508041325 47 249 0.0 0.9 0.00 0.15 0.00 95 1012.6
20260508040823 47 248 0.0 0.0 0.00 0.15 0.00 95 1012.4
20260508040320 47 249 0.0 0.0 0.00 0.16 0.00 95 1012.4
20260508040051 48 249 0.0 0.9 0.00 0.16 0.16 95 1012.4
20260508035551 48 249 0.0 2.6 0.00 0.16 0.16 95 1012.3
20260508035052 48 249 0.0 2.6 0.00 0.18 0.16 95 1012.3
20260508034551 48 248 0.0 1.7 0.00 0.18 0.16 93 1012.3
20260508033320 49 248 0.0 0.9 0.00 0.19 0.16 93 1012.2
20260508033054 49 248 0.0 0.9 0.00 0.19 0.16 93 1012.2
20260508032319 49 249 0.0 0.9 0.00 0.19 0.16 94 1012.1
20260508031819 50 249 0.0 0.9 0.00 0.19 0.16 93 1012.1
20260508031318 50 249 0.0 0.0 0.00 0.19 0.16 92 1012.1
20260508030816 50 248 0.0 0.0 0.00 0.19 0.16 91 1012.1
20260508030316 50 248 0.0 0.0 0.00 0.19 0.16 91 1012.1
20260508025816 51 248 0.0 0.0 0.00 0.19 0.16 91 1012.0
20260508025310 51 248 0.0 0.0 0.00 0.19 0.16 91 1012.0
20260508024804 51 249 0.0 0.0 0.00 0.19 0.16 90 1011.9
20260508024249 51 249 0.0 0.0 0.00 0.19 0.16 90 1012.0
20260508023744 52 249 0.0 1.7 0.00 0.19 0.16 90 1011.9
20260508023237 52 248 0.9 2.6 0.00 0.19 0.16 90 1011.9
20260508022457 52 234 0.9 2.6 0.00 0.19 0.16 89 1011.8
20260508021950 53 234 0.9 1.7 0.00 0.19 0.16 89 1011.8
20260508021218 53 286 0.9 2.6 0.00 0.19 0.16 89 1011.7
20260508020719 53 250 0.9 3.5 0.00 0.19 0.16 88 1011.7
20260508020452 53 215 0.9 3.5 0.00 0.19 0.16 88 1011.7
20260508015719 53 213 0.9 2.6 0.00 0.19 0.16 88 1011.7
20260508015448 53 210 0.9 2.6 0.00 0.19 0.16 88 1011.6
20260508014947 53 209 1.7 2.6 0.00 0.19 0.16 88 1011.7
20260508014214 53 223 1.7 3.5 0.00 0.19 0.16 87 1011.6
20260508013717 53 236 0.9 3.5 0.00 0.19 0.16 87 1011.5
20260508013215 53 215 0.9 2.6 0.00 0.19 0.16 87 1011.5
20260508012714 53 227 0.9 2.6 0.00 0.19 0.16 87 1011.3
20260508012446 53 224 0.9 2.6 0.00 0.19 0.16 86 1011.3
20260508011950 54 217 1.7 4.3 0.00 0.19 0.16 86 1011.2
20260508011443 54 238 0.9 4.3 0.00 0.19 0.16 86 1011.2
20260508010718 54 238 0.9 2.6 0.00 0.19 0.16 86 1011.2
20260508010200 54 225 0.9 3.5 0.00 0.19 0.16 86 1011.3
20260508005656 54 246 1.7 4.3 0.00 0.19 0.16 86 1011.2
20260508005202 54 218 1.7 6.1 0.00 0.19 0.16 85 1011.1
20260508004656 54 224 2.6 6.1 0.00 0.19 0.16 85 1011.1
20260508004156 54 252 2.6 6.1 0.00 0.19 0.16 84 1010.9
20260508003656 54 221 2.6 6.1 0.00 0.19 0.16 84 1010.9
20260508003156 54 232 2.6 6.1 0.00 0.19 0.16 83 1010.8
20260508002656 54 211 3.5 6.1 0.00 0.19 0.16 82 1010.7
20260508002156 54 200 2.6 5.2 0.00 0.19 0.16 82 1010.6
20260508001656 55 231 1.7 5.2 0.00 0.19 0.16 81 1010.6
20260508001209 55 159 2.6 6.1 0.00 0.19 0.16 81 1010.5
20260508000713 55 236 3.5 7.8 0.00 0.19 0.16 80 1010.5
20260508000212 55 219 3.5 7.8 0.00 0.19 0.16 80 1010.5
20260507235924 55 228 1.7 5.2 0.00 0.19 0.16 79 1010.5
20260507235148 56 214 1.7 4.3 0.00 0.19 0.16 78 1010.5
20260507234952 56 217 3.5 7.0 0.00 0.19 0.16 77 1010.4
20260507234144 56 200 3.5 7.0 0.00 0.19 0.16 77 1010.2
20260507233648 56 224 1.7 6.1 0.00 0.19 0.16 76 1010.1
20260507233145 56 227 1.7 3.5 0.00 0.19 0.16 77 1010.1
20260507232644 56 198 1.7 6.1 0.00 0.19 0.16 76 1010.0
20260507232149 57 232 1.7 6.1 0.00 0.19 0.16 76 1009.9
20260507231644 57 225 1.7 5.2 0.00 0.19 0.16 76 1010.0
20260507231144 57 235 1.7 4.3 0.00 0.19 0.16 75 1009.9
20260507230642 57 207 1.7 5.2 0.00 0.19 0.16 75 1009.8
20260507230141 57 236 2.6 8.7 0.00 0.19 0.16 74 1009.9